Location: La Trinit�
(48.1620°N, 3.4512°W)
Time: 16:00:46
(UTC+00:00)

Cosmos 1869 Rocket - Pass Details

Date: 08 May 2021
Orbit: 605 x 633 km, 82.5° (Epoch: 24 June)

Event Time Altitude Azimuth Distance (km) Brightness Sun altitude
Rises 22:54:01 0° 346° (NNW) 2,876 8.5 -22.3°
Reaches altitude 10° 22:56:17 10° 341° (NNW) 1,966 7.3 -22.4°
Maximum altitude 23:00:29 50° 266° (W) 773 4.0 -22.7°
Enters shadow 23:01:05 46° 237° (WSW) 815 4.0 -22.7°
